Погода в Эшвилле

США     35°36′02″N   82°33′14″W
темп.,
°C
ветер,
м/с
пор.,
м/с
влажн.,
%
обл.,
%
осадки,
мм/ч
давл.,
гПа
погр.,
м
19 апреля, пн
пн1923:00+10ссз117178 0.0 101232
02:00+8сз118335 0.1 101214
05:00+5ссз11958 0.1 101215
08:00+7сз279029 0.1 1013299
11:00+11сз576330 0.3 10131143
14:00+15ссз56445 0.3 10121849
17:00+15ссз67442 0.0 10121329
20:00+10ссз37702 0.0 1015200
20 апреля, вт
вт2023:00+6ссз21850 0.0 101818
02:00+5ссз1187100 0.0 101813
05:00+4з0086100 0.0 101810
08:00+7вюв1172100 0.0 101944
11:00+14ю475573 0.0 10181217
14:00+18ю574553 0.1 10152412
17:00+16ю465864 0.1 10131035
20:00+11ююв22775 0.2 101315
21 апреля, ср
ср2123:00+10юв118135 0.1 101438
02:00+8ю11945 0.1 101313
05:00+7зюз11892 0.0 101211
08:00+8ссз258355 0.0 1012224
11:00+3ссз6138785 0.1 1017611
14:00+3ссз8127373 0.1 10191001
17:00+3ссз8136122 0.1 10191144
20:00+1сз6126432 0.1 10211222
22 апреля, чт
чт2223:000сз411705 0.0 1022851
02:00−2сз398437 0.0 1023461
05:00−4сз229642 0.0 102432
08:00−1сз127957 0.0 1025153
11:00+7сз253726 0.0 10231503
14:00+12ссз5830100 0.0 10192521
17:00+11сз683571 0.0 10202261
20:00+6сз39530 0.0 1022356
23 апреля, пт
пт2323:00+1ссз25793 0.0 1025133
02:00−1сз22962 0.0 102633
05:00−2сз1197100 0.0 102615
08:00+1ссз1183100 0.0 102693
11:00+11ююз124497 0.0 1024918
14:00+15в133275 0.0 10201702
17:00+16ю333484 0.0 10181922
20:00+8св00715 0.0 101911